[[[{"header":{"parameterUnit":"kt","parameterCategory":2,"dx":1,"dy":1,"la1":30.253999710083008,"la2":30.299108505249023,"lo1":-89.0895004272461,"lo2":-89.04439544677734,"nx":28,"ny":28,"refTime":"2022-09-27T21:00:00:Z","depth":0,"parameterNumber":1,"parameterNumberName":"U-component_of_WINDS"},"data":[-4.3213,-4.3359,-4.3341,-4.3498,-4.3507,-4.3611,-4.3642,-4.3679,-4.3704,-4.3824,-4.3889,-4.3883,-4.3899,-4.3971,-4.404,-4.4035,-4.4067,-4.4131,-4.4116,-4.3844,-4.3806,-4.3769,-4.3734,-4.4138,-4.4138,-4.44,-4.4402,-4.4404,-4.3013,-4.3025,-4.3103,-4.3166,-4.3232,-4.3158,-4.3201,-4.3261,-4.3355,-4.3387,-4.345,-4.3554,-4.3632,-4.3626,-4.3698,-4.3764,-4.3734,-4.3785,-4.3781,-4.3785,-4.3494,-4.3457,-4.3809,-4.3809,-4.3808,-4.3808,-4.3808,-4.3808,-4.2644,-4.2733,-4.276,-4.2844,-4.2871,-4.2912,-4.2993,-4.2985,-4.306,-4.3135,-4.3097,-4.3203,-4.323,-4.3307,-4.3328,-4.3409,-4.3348,-4.3399,-4.3412,-4.3426,-4.3445,-4.3071,-4.342,-4.3419,-4.3418,-4.3417,-4.3416,0,-4.2369,-4.2348,-4.2421,-4.249,-4.255,-4.2601,-4.2644,-4.2693,-4.264,-4.2705,-4.2796,-4.2845,-4.2941,-4.3024,-4.3087,-4.3098,-4.3029,-4.3019,-4.3054,-4.3076,-4.3087,-4.3084,-4.2612,-4.301,-4.3006,-4.3004,-4.3002,-4.3,-4.1997,-4.2102,-4.2122,-4.2176,-4.2195,-4.2284,-4.2332,-4.2278,-4.2332,-4.2376,-4.2456,-4.2538,-4.2601,-4.2749,-4.2738,-4.281,-4.2778,-4.2932,-4.2788,-4.2804,-4.2782,-4.2778,-4.2788,-4.2962,-4.2967,-4.2971,-4.2974,0,-4.1789,-4.1759,-4.1916,-4.1925,-4.193,-4.2043,-4.2049,-4.2135,-4.2118,-4.2233,-4.2256,-4.223,-4.232,-4.2284,-4.2379,-4.2358,-4.2541,-4.2506,-4.2531,-4.2523,-4.2658,-4.2647,-4.3102,-4.3159,-4.2738,-4.2742,-4.2745,0,-4.1461,-4.1601,-4.1548,-4.1641,-4.1793,-4.1735,-4.1888,-4.1889,-4.1912,-4.2002,-4.1917,-4.2003,-4.1943,-4.2024,-4.1992,-4.2135,-4.2152,-4.2145,-4.2136,-4.2155,-4.2156,-4.2185,-4.2167,-4.2108,-4.2106,-4.2104,-4.2102,0,-4.1142,-4.1277,-4.1427,-4.1453,-4.1477,-4.1548,-4.1562,-4.1587,-4.1636,-4.1692,-4.1723,-4.1792,-4.1831,-4.1885,-4.1845,-4.1749,-4.2018,-4.1878,-4.2011,-4.2013,-4.2076,-4.2073,-4.2482,-4.2099,-4.2098,-4.2098,-4.2097,0,-4.0873,-4.0933,-4.1155,-4.1173,-4.1211,-4.1309,-4.1374,-4.145,-4.1484,-4.1471,-4.1514,-4.1455,-4.1576,-4.1439,-4.1605,-4.1492,-4.1534,-4.1538,-4.1547,-4.1558,-4.1408,-4.1646,-4.2037,-4.2078,-4.1564,-4.156,-4.1556,0,-4.0517,-4.0733,-4.0685,-4.0897,-4.0992,-4.0891,-4.0999,-4.1031,-4.1023,-4.1101,-4.109,-4.1181,-4.1071,-4.1095,-4.1181,-4.1175,-4.1322,-4.1153,-4.1268,-4.1272,-4.1264,-4.1623,-4.1692,-4.1954,-4.1498,-4.1504,-4.1509,0,-4.0237,-4.0267,-4.0308,-4.0336,-4.0371,-4.045,-4.0574,-4.0651,-4.0706,-4.0751,-4.0854,-4.0979,-4.0901,-4.0942,-4.0901,-4.0993,-4.122,-4.0898,-4.0898,-4.0959,-4.1466,-4.1531,-4.1575,-4.1172,-4.1179,-4.1184,-4.1463,0,-3.9841,-3.9945,-4.0055,-4.012,-4.0175,-4.0306,-4.027,-4.0332,-4.0287,-4.0275,-4.0425,-4.0444,-4.0523,-4.0563,-4.052,-4.0742,-4.07,-4.0618,-4.0485,-4.072,-4.0811,-4.0848,-4.0352,-4.0347,-4.0344,-4.0341,0,0,-3.9509,-3.9658,-3.9603,-3.9722,-3.9766,-3.9661,-3.9804,-3.9833,-3.9898,-3.993,-3.9854,-4.0035,-4.0054,-4.024,-4.031,-4.0342,-4.0379,-4.0299,-4.0608,-4.0638,-4.0665,-4.0763,-4.0802,-4.0335,-4.0334,-4.0332,-4.0331,0,-3.9358,-3.938,-3.9522,-3.9551,-3.9591,-3.9572,-3.9607,-3.9629,-3.9628,-3.9775,-3.9687,-3.9772,-3.9919,-3.9951,-3.9986,-4.0274,-4.0204,-4.03,-4.0468,-4.0574,-4.0608,-4.0639,-4.0742,-4.078,-4.0323,-4.0323,-4.0324,0,-3.9078,-3.9094,-3.9159,-3.9253,-3.9279,-3.938,-3.9231,-3.9344,-3.9417,-3.9298,-3.9446,-3.9452,-3.9491,-3.9672,-3.9751,-3.9686,-4.0048,-3.9927,-3.9948,-3.9957,-4.0057,-4.0099,-4.0136,-3.9649,-3.9647,-3.9645,0,0,-3.8952,-3.9049,-3.905,-3.9219,-3.9241,-3.9216,-3.9266,-3.9227,-3.9265,-3.9281,-3.9288,-3.9328,-3.9412,-3.9469,-3.9546,-3.9749,-3.9754,-3.9846,-3.9877,-3.9903,-3.9927,-4.0034,-4.0075,-3.9637,-3.9637,-3.9636,0,0,-3.8893,-3.8901,-3.8849,-3.904,-3.908,-3.9093,-3.9197,-3.9134,-3.92,-3.9181,-3.9121,-3.9129,-3.9297,-3.9307,-3.92,-3.9499,-3.9367,-3.9392,-3.9487,-3.9527,-3.9558,-3.9553,-3.9052,0,0,0,0,0,-3.8721,-3.8899,-3.8853,-3.8879,-3.8999,-3.9118,-3.9133,-3.9088,-3.8995,-3.9079,-3.9074,-3.8996,-3.9236,-3.914,-3.9167,-3.9289,-3.953,-3.9549,-3.9567,-3.9736,-3.9778,-3.9813,0,0,0,0,0,0,-3.8731,-3.8764,-3.8848,-3.8869,-3.8895,-3.9111,-3.8945,-3.8938,-3.8985,-3.8968,-3.8999,-3.8996,-3.896,-3.9123,-3.9148,-3.9264,-3.9043,-3.9537,-3.9554,-3.9568,-3.975,-3.9785,-3.9814,0,0,0,0,0,-3.8739,-3.8765,-3.897,-3.8866,-3.8889,-3.8871,-3.8938,-3.8931,-3.8967,-3.8961,-3.8956,-3.8928,-3.8964,-3.8983,-3.9138,-3.9254,-3.9025,-3.9035,-3.9548,-3.9561,-3.9572,-3.9767,0,0,0,0,0,0,-3.8745,-3.8759,-3.8973,-3.8979,-3.8796,-3.8858,-3.8866,-3.8925,-3.8955,-3.8952,-3.8887,-3.8873,-3.897,-3.8983,-3.8997,-3.9253,-3.901,-3.902,-3.9026,-3.9558,-3.9567,-3.9576,0,0,0,0,0,0,-3.8744,-3.8764,-3.8976,-3.889,-3.8885,-3.8846,-3.8854,-3.8979,-3.8957,-3.8879,-3.8868,-3.888,-3.8948,-3.8984,-3.8995,-3.9192,-3.8999,-3.9009,-3.9015,-3.9019,-3.9566,-3.9573,0,0,0,0,0,0,-3.8752,-3.8769,-3.8888,-3.8885,-3.8879,-3.8935,-3.8956,-3.9082,-3.8883,-3.8879,-3.8864,-3.8855,-3.8952,-3.8961,-3.8994,-3.9187,-3.9191,-3.9,-3.9006,-3.9011,-3.9014,0,0,0,0,0,0,0,-3.8758,-3.8655,-3.8942,-3.888,-3.8875,-3.9027,-3.9029,-3.903,-3.8881,-3.8874,-3.8866,-3.8859,-3.8946,-3.8956,-3.8967,-3.9183,0,0,-3.8999,-3.9003,0,0,0,0,0,0,0,0,-3.8646,-3.8653,-3.8943,-3.8944,-3.8945,-3.9028,-3.9029,-3.903,-3.888,-3.8874,-3.8868,-3.8862,-3.8949,-3.8957,-3.8965,0,0,0,0,0,0,0,0,0,0,0,0,0,0,0,-3.8943,-3.8944,0,-3.9028,-3.9029,-3.903,-3.8879,-3.8874,-3.8869,-3.8864,-3.8951,-3.8958,-3.8965,0,0,0,0,0,0,0,0,0,0,0,0,0,0,0,0,0,0,0,0,0,0,0,0,0,0,0,0,0,0,0,0,0,0,0,0,0,0,0,0,0,0,0,0,0,0,0,0,0,0,0,0,0,0,0,0,0,0,0,0,0,0,0,0,0,0,0,0,0]}],[{"header":{"parameterUnit":"kt","parameterCategory":2,"dx":1,"dy":1,"la1":30.253999710083008,"la2":30.299108505249023,"lo1":-89.0895004272461,"lo2":-89.04439544677734,"nx":28,"ny":28,"refTime":"2022-09-27T21:00:00:Z","depth":0,"parameterNumber":2,"parameterNumberName":"V-component_of_WINDS"},"data":[-15.728,-15.7549,-15.7531,-15.7826,-15.7858,-15.8054,-15.8118,-15.8196,-15.8252,-15.8479,-15.8605,-15.8607,-15.865,-15.8791,-15.8922,-15.8918,-15.8975,-15.9086,-15.9062,-15.8591,-15.8524,-15.846,-15.8397,-15.9099,-15.91,-15.9553,-15.9557,-15.956,-15.6937,-15.6973,-15.7125,-15.7257,-15.7386,-15.7268,-15.736,-15.7474,-15.7651,-15.7721,-15.7844,-15.804,-15.8191,-15.8194,-15.8333,-15.8452,-15.8401,-15.8491,-15.8481,-15.8489,-15.7985,-15.7918,-15.853,-15.853,-15.853,-15.8529,-15.8529,-15.8529,-15.6305,-15.6468,-15.6537,-15.67,-15.6761,-15.6848,-15.6997,-15.6998,-15.7142,-15.7289,-15.7232,-15.743,-15.7491,-15.7645,-15.769,-15.7839,-15.7734,-15.7823,-15.7846,-15.7869,-15.7899,-15.7247,-15.7861,-15.7859,-15.7858,-15.7856,-15.7855,0,-15.5836,-15.5809,-15.5953,-15.6091,-15.6208,-15.6312,-15.6401,-15.6492,-15.6419,-15.6541,-15.6713,-15.6807,-15.6991,-15.7147,-15.727,-15.7296,-15.718,-15.7165,-15.7226,-15.7257,-15.727,-15.7265,-15.6444,-15.7147,-15.7141,-15.7136,-15.7133,-15.713,-15.5197,-15.5389,-15.545,-15.5553,-15.5597,-15.5765,-15.5858,-15.578,-15.5882,-15.5977,-15.6121,-15.6277,-15.6398,-15.6673,-15.6664,-15.6799,-15.6743,-15.7014,-15.6762,-15.6785,-15.6746,-15.6736,-15.6753,-15.7065,-15.7073,-15.708,-15.7085,0,-15.4838,-15.4804,-15.5093,-15.5132,-15.5147,-15.5351,-15.5381,-15.5537,-15.5518,-15.5729,-15.5773,-15.5743,-15.591,-15.5858,-15.6037,-15.6003,-15.633,-15.6272,-15.6308,-15.6293,-15.653,-15.6508,-15.7309,-15.7409,-15.6681,-15.6688,-15.6694,0,-15.4278,-15.4532,-15.4464,-15.4634,-15.4911,-15.4826,-15.5102,-15.5113,-15.5166,-15.5331,-15.5192,-15.5349,-15.5256,-15.5405,-15.5356,-15.5613,-15.5646,-15.5635,-15.5619,-15.5648,-15.565,-15.5697,-15.5663,-15.5576,-15.5572,-15.5568,-15.5565,0,-15.372,-15.398,-15.4256,-15.4309,-15.4374,-15.4504,-15.4536,-15.4594,-15.4686,-15.4795,-15.4853,-15.4985,-15.5058,-15.5161,-15.5097,-15.4928,-15.541,-15.5164,-15.5398,-15.5401,-15.5507,-15.5501,-15.6225,-15.556,-15.5559,-15.5557,-15.5556,0,-15.326,-15.3379,-15.3785,-15.3835,-15.3905,-15.4086,-15.4212,-15.4355,-15.4425,-15.4407,-15.4491,-15.4391,-15.4613,-15.4372,-15.4675,-15.4473,-15.4551,-15.456,-15.4576,-15.4591,-15.4324,-15.4738,-15.5434,-15.5504,-15.4607,-15.4599,-15.4592,0,-15.2631,-15.3031,-15.296,-15.3346,-15.3522,-15.3355,-15.3552,-15.362,-15.3612,-15.3756,-15.3744,-15.391,-15.372,-15.3763,-15.392,-15.3913,-15.4176,-15.3876,-15.408,-15.4088,-15.4067,-15.4707,-15.4823,-15.5288,-15.449,-15.45,-15.4508,0,-15.2138,-15.2218,-15.2292,-15.2348,-15.2426,-15.2572,-15.28,-15.2946,-15.3046,-15.3137,-15.3323,-15.3553,-15.3418,-15.3492,-15.3423,-15.3589,-15.3995,-15.3421,-15.3421,-15.3526,-15.4434,-15.4544,-15.4622,-15.3911,-15.3924,-15.3934,-15.4427,0,-15.1451,-15.1646,-15.1844,-15.1973,-15.2078,-15.2316,-15.2263,-15.2379,-15.2303,-15.2289,-15.2561,-15.26,-15.2745,-15.2819,-15.2746,-15.3145,-15.3069,-15.2923,-15.2684,-15.3105,-15.3266,-15.3331,-15.2449,-15.2441,-15.2435,-15.243,0,0,-15.0856,-15.1134,-15.1049,-15.1269,-15.1351,-15.1173,-15.1432,-15.1491,-15.1615,-15.1674,-15.1541,-15.1872,-15.1909,-15.2245,-15.2372,-15.2431,-15.2496,-15.2351,-15.2905,-15.2958,-15.3007,-15.3181,-15.325,-15.2419,-15.2417,-15.2414,-15.2412,0,-15.0594,-15.0644,-15.0903,-15.0962,-15.1045,-15.1017,-15.108,-15.1129,-15.1131,-15.1399,-15.1244,-15.14,-15.1667,-15.1726,-15.1792,-15.231,-15.2182,-15.2358,-15.2656,-15.2845,-15.2906,-15.296,-15.3144,-15.3211,-15.2397,-15.2398,-15.2399,0,-15.0098,-15.0138,-15.0258,-15.044,-15.0492,-15.0677,-15.0414,-15.0621,-15.0756,-15.0545,-15.0813,-15.0827,-15.0901,-15.1226,-15.137,-15.1252,-15.19,-15.1685,-15.1723,-15.1737,-15.1917,-15.1991,-15.2057,-15.1188,-15.1184,-15.118,0,0,-14.9879,-15.0059,-15.0074,-15.038,-15.0423,-15.0386,-15.0478,-15.0412,-15.0486,-15.0516,-15.0531,-15.0604,-15.0757,-15.086,-15.1001,-15.1366,-15.1373,-15.1539,-15.1596,-15.1643,-15.1683,-15.1875,-15.1948,-15.1165,-15.1165,-15.1164,0,0,-14.9772,-14.9803,-14.9715,-15.0063,-15.014,-15.0172,-15.0359,-15.025,-15.0372,-15.0338,-15.0232,-15.0247,-15.055,-15.0569,-15.0375,-15.0914,-15.0679,-15.0724,-15.0891,-15.0962,-15.1018,-15.1006,-15.0108,0,0,0,0,0,-14.9477,-14.9799,-14.9719,-14.9769,-14.9997,-15.0217,-15.0245,-15.0168,-15.0003,-15.0153,-15.0147,-15.0005,-15.0442,-15.0269,-15.0318,-15.0534,-15.0972,-15.1006,-15.1039,-15.134,-15.1415,-15.1478,0,0,0,0,0,0,-14.9496,-14.9558,-14.971,-14.9757,-14.9807,-15.0205,-14.9909,-14.9896,-14.9985,-14.9954,-15.0011,-15.0007,-14.9942,-15.0238,-15.0283,-15.0491,-15.0092,-15.0986,-15.1015,-15.1041,-15.1365,-15.1427,-15.1479,0,0,0,0,0,-14.951,-14.956,-14.9947,-14.9752,-14.9796,-14.977,-14.9896,-14.9883,-14.995,-14.9943,-14.9934,-14.9884,-14.9951,-14.9983,-15.0264,-15.0472,-15.006,-15.0077,-15.1004,-15.1027,-15.1048,-15.1395,0,0,0,0,0,0,-14.9521,-14.9549,-14.9954,-14.9964,-14.9625,-14.9746,-14.9762,-14.9873,-14.993,-14.9926,-14.9808,-14.9783,-14.996,-14.9984,-15.001,-15.047,-15.0034,-15.0052,-15.0063,-15.1022,-15.104,-15.1056,0,0,0,0,0,0,-14.9521,-14.9559,-14.9959,-14.9803,-14.9795,-14.9724,-14.9739,-14.9965,-14.9933,-14.9792,-14.9773,-14.9797,-14.9919,-14.9986,-15.0006,-15.0362,-15.0014,-15.0031,-15.0042,-15.005,-15.1037,-15.1051,0,0,0,0,0,0,-14.9535,-14.9568,-14.98,-14.9794,-14.9785,-14.9894,-14.9921,-15.0158,-14.9804,-14.9792,-14.9769,-14.9754,-14.9926,-14.9943,-15.0004,-15.0353,-15.036,-15.0014,-15.0026,-15.0034,-15.0039,0,0,0,0,0,0,0,-14.9547,-14.9351,-14.9894,-14.9786,-14.9778,-15.0059,-15.0062,-15.0065,-14.98,-14.9787,-14.9773,-14.976,-14.9917,-14.9936,-14.9955,-15.0346,0,0,-15.0013,-15.0021,0,0,0,0,0,0,0,0,-14.9335,-14.9347,-14.9895,-14.9897,-14.9899,-15.006,-15.0062,-15.0064,-14.9798,-14.9787,-14.9776,-14.9766,-14.9922,-14.9937,-14.9952,0,0,0,0,0,0,0,0,0,0,0,0,0,0,0,-14.9895,-14.9897,0,-15.006,-15.0062,-15.0063,-14.9797,-14.9787,-14.9778,-14.977,-14.9926,-14.9939,-14.9951,0,0,0,0,0,0,0,0,0,0,0,0,0,0,0,0,0,0,0,0,0,0,0,0,0,0,0,0,0,0,0,0,0,0,0,0,0,0,0,0,0,0,0,0,0,0,0,0,0,0,0,0,0,0,0,0,0,0,0,0,0,0,0,0,0,0,0,0,0]}]]]